Location: Nijmegen RU
(51.8233°N, 354.1314°E)
Time: 02:07:33
(UTC+02:00)

Envisat - Pass Details

Date: 25 February 2019
Orbit: 764 x 766 km, 98.1° (Epoch: 22 October)

Event Time Altitude Azimuth Distance (km) Brightness Sun altitude
Rises 21:47:48 0° 227° (SW) 3,224 6.6 -27.0°
Reaches altitude 10° 21:52:24 10° 266° (W) 2,306 6.3 -27.6°
Maximum altitude 21:53:26 11° 278° (W) 2,267 6.3 -27.8°
Drops below altitude 10° 21:54:29 10° 290° (WNW) 2,309 6.5 -27.9°
Sets 21:59:07 0° 329° (NNW) 3,244 7.0 -28.6°
